EHI
5 6 6 5 4 4 4 4 3 1 0 0 0 0 0 0 1 3 3 2 1 0 0 0 0 0 0 0 0 0 0 0 0 0 0 1 0 0 0 0 0 0 0
8 7 6 4 4 4 4 5 4 2 1 0 0 0 0 1 2 3 3 1 0 0 0 0 0 0 0 0 0 0 0 0 0 0 1 2 1 0 0 0 0 0 0
10 8 6 4 4 4 5 6 6 4 2 1 1 1 1 2 3 3 2 1 0 0 0 0 0 0 0 0 0 0 0 0 0 0 1 2 1 0 0 0 0 0 0
10 8 6 5 4 4 5 6 6 5 4 3 3 3 3 3 3 2 1 0 0 0 0 0 0 0 0 0 0 0 0 0 0 0 1 1 1 0 0 0 0 0 0
9 7 6 6 6 5 6 7 7 6 4 4 5 4 4 4 4 2 1 0 0 0 0 0 1 1 1 1 1 1 0 0 0 0 0 0 1 1 0 0 0 0 0
6 6 6 7 8 8 7 7 8 7 6 6 6 6 6 5 4 3 3 1 0 0 1 2 2 3 3 4 4 3 2 1 1 0 0 1 2 2 1 0 0 0 0
2 4 6 8 9 9 9 8 8 9 9 8 7 7 6 5 4 3 2 1 0 1 3 4 4 5 6 6 6 6 5 3 2 1 1 1 3 3 2 1 1 1 0
0 2 6 9 9 9 8 8 8 8 8 8 7 5 3 2 1 1 1 0 0 1 2 4 5 6 6 6 6 7 7 5 3 3 3 4 4 4 4 3 3 2 1
1 2 5 7 7 7 6 5 6 6 6 7 6 4 2 1 0 0 0 0 0 0 1 1 3 4 6 6 7 7 8 7 7 7 8 8 8 8 7 6 5 3 3
2 2 4 6 6 6 4 4 4 5 5 5 5 4 3 1 1 0 0 0 0 0 0 1 1 3 5 6 7 8 9 9 10 11 10 10 11 11 11 10 8 6 5
1 1 3 5 6 6 5 4 4 4 5 5 5 5 4 3 2 1 0 0 0 1 1 2 3 4 6 7 8 9 10 10 10 11 11 10 11 12 12 12 11 10 8
0 0 1 3 4 6 6 5 4 4 4 5 6 6 5 5 4 2 1 0 1 2 3 3 5 6 7 8 10 11 11 10 10 10 10 9 10 12 12 12 12 12 11
1 1 2 3 5 7 8 8 6 5 4 5 6 7 6 5 4 3 3 2 2 2 2 3 4 6 8 9 10 11 10 9 9 9 9 8 9 11 11 11 11 11 11
4 4 4 5 7 7 8 9 8 7 6 6 7 7 6 6 5 4 3 3 2 1 1 1 2 4 6 8 10 10 9 8 8 9 9 9 8 9 9 10 11 10 9
6 5 5 5 7 8 7 7 7 7 7 7 8 8 7 6 4 3 3 3 3 2 0 0 1 2 4 7 8 7 7 8 9 10 10 9 7 5 5 7 8 7 7
6 5 4 5 8 9 7 6 6 6 6 7 8 8 7 6 4 3 2 2 3 3 2 3 4 4 5 5 3 3 4 7 9 10 10 8 4 2 2 2 3 3 3
6 5 5 6 8 9 9 8 7 6 6 6 7 7 7 6 4 3 3 4 4 5 6 7 8 8 6 3 1 0 2 5 7 7 7 5 3 1 0 0 1 1 1
6 6 6 7 8 9 10 11 10 7 5 5 6 6 7 6 5 4 5 6 7 6 8 9 10 9 6 3 1 0 1 3 4 4 3 3 2 1 0 0 0 0 0
6 6 6 7 9 10 10 11 9 7 5 5 5 6 6 6 6 7 8 9 9 9 8 8 9 8 6 3 2 2 3 3 2 1 1 2 1 1 0 0 0 0 0
6 6 7 7 9 10 11 10 8 7 6 5 5 7 6 6 7 9 10 10 11 10 8 7 8 8 6 4 4 4 4 3 1 0 0 0 0 0 0 0 0 0 0
7 7 8 9 10 11 11 8 6 6 7 6 5 6 7 8 10 11 11 11 10 8 7 6 6 6 6 5 4 4 4 2 1 0 0 0 0 0 0 0 0 0 0
8 8 9 9 10 11 10 7 5 6 7 6 6 7 9 11 13 14 13 12 10 7 6 6 5 4 5 5 3 2 2 1 0 0 0 0 0 0 0 0 0 0 0
7 8 9 9 9 10 9 7 6 7 7 8 8 10 11 13 14 15 13 11 9 7 8 9 7 6 6 5 3 1 1 0 0 0 0 0 0 0 0 0 0 0 0
6 7 8 9 9 8 6 6 7 7 8 10 11 12 12 13 13 13 11 9 8 8 9 9 8 7 7 5 3 2 1 1 0 0 0 0 0 0 0 0 0 0 0
5 6 7 9 10 8 5 5 5 6 8 10 11 11 11 12 12 11 9 7 7 8 6 6 6 6 5 4 3 2 2 1 0 0 0 0 0 0 1 1 1 0 0
4 5 6 8 9 8 6 4 3 5 7 9 10 10 10 11 11 10 8 6 6 5 4 4 4 4 3 2 1 1 1 1 0 1 1 1 0 1 1 2 1 1 0
Wind_Speed
6 5 5 5 5 5 5 5 4 4 3 2 2 1 1 0 0 0 0 1 2 2 2 2 2 2 2 2 3 3 3 2 1 2 2 2 2 1 1 0 1 0 1
5 6 5 5 5 6 6 5 5 5 4 3 2 2 2 1 1 0 0 1 2 2 2 3 2 2 2 2 2 3 2 1 1 1 1 2 3 2 1 0 0 1 0
8 7 7 7 6 7 7 6 6 5 4 3 2 2 2 1 1 0 0 1 1 2 2 3 3 2 3 3 3 3 3 2 1 1 2 2 1 1 2 1 0 0 0
8 7 8 7 8 7 6 5 5 5 4 4 4 4 3 2 2 2 1 1 1 1 2 2 3 3 2 3 3 3 2 3 2 0 0 1 2 1 1 2 1 1 1
9 10 9 9 8 6 6 5 5 4 4 4 5 4 3 3 1 1 1 1 1 1 2 2 3 3 3 3 3 3 3 2 2 2 1 1 1 1 1 2 2 2 1
7 7 6 6 6 6 6 5 5 5 4 4 4 4 5 4 3 2 1 1 1 1 2 2 3 3 3 3 3 4 4 3 3 2 2 2 2 2 2 2 2 2 2
6 6 6 6 6 7 6 6 6 5 5 5 4 5 5 4 5 3 3 2 1 2 3 3 3 3 3 3 3 3 4 4 3 3 3 2 2 2 2 2 2 2 2
5 6 6 6 6 7 7 6 7 6 5 5 5 4 4 3 3 3 3 3 3 3 3 3 3 3 3 3 3 3 3 3 3 4 3 2 2 3 3 3 2 1 2
6 6 5 5 5 6 7 7 7 6 5 5 4 4 4 4 4 3 3 2 3 3 2 3 3 3 3 3 3 2 3 3 3 3 3 2 2 2 3 3 3 3 2
5 5 5 5 5 4 4 5 6 7 6 5 5 5 4 4 4 3 3 3 3 2 2 2 2 2 2 3 3 2 2 3 3 2 3 3 2 2 2 3 3 3 3
6 5 5 4 4 3 3 4 4 4 5 5 4 3 3 3 3 3 4 3 3 3 3 3 3 3 3 3 3 3 3 3 3 2 3 3 3 2 2 2 2 2 2
4 4 4 4 4 3 3 4 4 4 4 4 4 3 2 2 2 2 2 2 3 3 3 3 3 3 3 3 4 3 3 3 3 3 2 3 2 2 2 2 2 2 3
3 3 4 4 4 4 3 4 4 4 4 4 3 3 3 3 3 3 2 2 2 2 2 3 3 3 3 3 3 3 3 3 3 3 3 3 3 3 2 3 2 2 2
3 4 4 4 4 4 4 4 4 4 4 4 4 4 4 4 3 3 2 2 2 2 2 3 3 4 3 3 3 3 3 3 3 3 3 3 3 4 3 3 3 2 2
3 4 4 4 4 4 3 4 4 4 4 4 4 4 4 3 2 2 2 2 2 2 2 2 2 3 3 3 3 3 3 3 3 2 2 3 3 4 4 3 3 3 2
4 4 4 4 4 5 4 4 4 4 4 4 4 3 2 2 2 2 2 2 2 1 1 2 2 2 2 3 4 3 3 3 3 2 2 2 2 3 3 4 4 5 4
5 5 5 5 5 5 5 5 4 3 3 4 4 3 3 3 3 3 2 3 3 2 2 2 2 3 3 3 4 4 3 3 3 3 2 2 2 2 2 2 3 3 4
5 5 4 4 4 3 3 3 3 3 3 3 3 3 3 3 2 2 2 2 2 2 3 3 3 3 3 3 4 4 3 3 3 3 3 3 2 2 2 2 1 1 2
4 4 4 4 3 3 3 3 3 3 3 3 4 4 3 3 3 3 3 3 2 2 3 3 3 3 3 4 4 4 3 2 3 3 3 3 3 3 2 2 2 2 2
3 3 3 3 4 4 4 4 3 3 4 5 5 4 4 4 4 4 3 3 3 3 3 3 3 4 4 5 5 4 3 3 2 2 3 4 4 4 3 3 3 3 3
2 2 3 3 4 4 5 4 4 5 6 4 4 4 4 4 4 4 3 3 3 2 3 3 3 3 4 5 6 6 3 4 3 3 3 3 5 5 5 5 4 5 3
1 1 1 1 2 3 4 4 5 5 3 3 3 3 3 3 3 3 3 3 3 3 3 3 3 3 3 4 5 7 5 4 4 4 3 3 4 5 5 4 4 5 3
1 0 0 0 1 1 3 4 4 2 2 2 2 2 2 2 2 3 3 3 3 3 3 3 3 3 3 3 5 6 6 5 3 3 4 3 4 4 4 5 5 4 3
1 0 1 1 1 1 1 2 2 1 2 2 2 2 2 2 2 2 3 3 4 4 4 4 4 3 3 3 3 3 4 4 3 3 3 3 3 4 3 3 3 3 3
1 0 1 1 1 1 1 1 1 2 3 3 2 2 2 2 2 2 2 4 4 5 5 5 5 4 5 6 6 4 4 4 3 2 1 1 2 2 3 3 3 3 3
1 1 1 1 1 1 1 2 1 2 3 3 3 3 2 2 2 2 1 2 3 5 7 7 6 6 7 6 6 6 6 5 5 4 2 3 3 4 4 4 4 3 4
Wind_Direction
192 169 166 161 155 159 162 167 166 169 152 141 143 141 175 225 284 236 221 171 156 153 153 158 146 140 136 138 128 114 103 91 92 79 47 28 38 48 27 66 100 144 204
179 175 170 169 170 175 178 176 179 181 177 169 161 156 151 168 202 262 32 176 159 163 169 163 162 154 140 130 134 130 124 129 112 117 93 12 0 7 19 61 167 246 228
188 186 183 184 181 185 187 186 186 184 180 165 132 105 76 49 40 336 285 238 179 168 169 165 163 166 165 170 175 166 159 171 176 134 142 142 237 326 348 349 303 283 230
189 190 189 186 192 197 189 181 178 178 175 164 160 165 174 192 212 206 216 243 200 180 176 173 171 179 180 182 192 183 177 169 184 170 153 162 164 166 324 332 337 302 259
193 194 195 190 191 188 179 175 169 175 177 176 178 179 190 198 192 177 191 234 260 213 197 191 184 189 192 196 201 192 190 186 187 181 166 150 143 170 188 278 314 326 292
193 190 187 179 182 177 176 172 170 180 176 177 180 189 194 190 181 188 197 224 252 252 225 205 198 200 197 200 206 204 199 200 198 195 184 176 178 186 185 221 265 291 294
182 178 176 178 183 179 184 181 178 189 185 184 188 196 198 194 198 198 201 207 225 237 234 217 206 206 206 202 197 201 207 205 206 207 210 207 206 184 175 184 234 274 293
175 175 177 177 184 185 183 181 185 195 190 191 200 200 193 195 206 205 206 212 223 234 228 210 209 212 209 205 194 201 212 207 213 217 208 213 218 199 191 187 187 254 300
170 174 173 173 180 187 189 189 188 194 194 198 204 205 200 200 209 210 212 223 231 237 222 206 208 213 209 203 190 200 211 203 215 216 207 215 230 218 211 204 195 199 253
167 169 171 179 184 189 190 190 192 193 190 191 203 211 209 210 208 204 217 223 232 236 224 215 214 213 210 200 190 197 205 196 216 214 209 223 230 223 214 209 210 207 214
177 176 180 182 176 169 175 185 192 193 188 193 201 202 198 200 201 209 219 218 226 225 222 213 204 210 210 202 194 205 201 204 220 225 218 233 222 220 219 205 201 206 201
176 169 167 161 162 172 180 182 181 186 195 190 189 194 191 183 199 221 228 220 226 230 223 207 202 213 212 204 202 210 209 206 213 222 217 235 223 215 220 209 211 213 205
160 155 152 162 175 183 186 188 189 196 195 179 186 198 199 200 214 225 223 216 218 226 219 203 211 219 217 209 206 205 207 207 212 215 216 226 214 225 226 215 215 217 212
162 161 167 176 181 186 189 192 199 197 192 184 189 205 215 216 222 225 219 220 216 214 219 215 218 220 216 209 207 205 205 212 219 222 224 226 222 226 226 219 215 205 199
169 178 183 185 183 183 190 190 196 194 189 184 197 214 219 213 218 230 228 228 225 224 217 217 227 225 217 217 208 208 209 210 220 235 236 231 233 230 222 214 202 195 195
189 191 192 187 190 193 195 193 197 195 181 186 203 207 203 211 217 224 223 219 232 236 209 213 218 225 234 213 200 200 209 212 217 236 253 246 238 238 225 216 203 192 195
194 189 195 196 201 204 194 197 198 187 185 194 203 199 199 216 228 228 218 217 226 226 226 219 213 227 241 222 213 210 209 214 219 222 235 250 250 231 228 222 215 223 227
197 197 197 199 203 199 191 186 175 179 191 201 209 204 203 217 222 213 220 228 219 214 223 225 222 228 238 220 213 209 209 215 222 222 220 223 245 242 211 206 213 244 249
205 200 196 194 192 196 185 167 172 178 192 211 221 215 205 210 212 218 223 221 212 223 224 224 219 225 244 223 205 194 203 215 229 232 227 220 227 240 202 194 212 256 281
208 195 184 171 181 196 172 162 183 188 211 220 219 209 198 202 211 219 220 218 211 222 226 233 227 220 231 227 210 191 194 212 231 243 238 224 220 221 199 201 210 238 263
243 197 175 183 192 185 167 180 196 212 219 220 213 200 199 207 206 210 210 205 206 210 228 238 243 233 232 228 216 202 198 207 215 229 238 236 220 220 216 211 217 231 242
305 239 187 214 209 182 175 198 221 228 216 204 205 206 201 212 213 204 210 202 195 204 227 241 249 249 238 228 221 212 214 210 210 225 232 230 216 218 220 220 234 231 222
265 281 144 332 323 212 187 214 240 224 187 190 211 214 191 203 204 203 206 206 203 212 226 232 241 249 241 230 222 216 219 215 216 228 231 238 228 222 223 233 237 225 218
252 112 109 77 325 310 241 231 250 208 170 185 214 211 190 198 209 211 209 211 211 217 221 229 235 240 236 229 218 214 215 221 225 233 239 242 235 229 234 238 233 224 222
288 185 169 178 267 305 316 292 234 188 179 190 209 211 201 203 204 221 226 227 229 220 220 227 223 220 233 235 218 204 211 211 210 191 199 221 226 234 235 233 234 228 222
319 358 339 345 310 324 313 290 244 187 181 191 201 203 202 209 203 209 259 280 260 250 236 232 226 232 234 225 213 217 218 209 181 167 201 224 231 233 235 234 236 233 232